Regional Weather Roundup
Issued by NWS Newport/Morehead, NC

Home | Current Version | Previous Version | Text Only | Print | Product List | Glossary On
Versions: 1 2 3 4 5 6 7 8 9 10 11 12 13 14 15 16 17 18 19 20 21 22 23 24 25 26 27 28 29 30 31 32 33 34 35 36 37 38 39 40 41 42 43 44 45 46 47 48 49 50
000
ASUS42 KMHX 020022
RWRMHX
WEATHER ROUNDUP FOR EASTERN NORTH CAROLINA
NATIONAL WEATHER SERVICE NEWPORT/MOREHEAD CITY NC
700 PM EST SUN FEB 01 2015

NOTE: "FAIR" INDICATES FEW OR NO CLOUDS BELOW 12,000 FEET
WITH NO SIGNIFICANT WEATHER AND/OR OBSTRUCTIONS TO VISIBILITY

NCZ015>017-031-032-045>047-102-103-020100-
NORTH COAST

CITY           SKY/WX    TMP DP  RH WIND       PRES   REMARKS
EDENTON        CLOUDY    48  29  47 SE7       30.08F
ELIZABETH CITY CLOUDY    46  31  55 SE7       30.10F
KITTY HAWK     CLOUDY    44  32  62 S3        30.12F
MANTEO         CLOUDY    43  36  75 S6        30.13F

$$

NCZ045>047-081-094-103-104-020100-
CENTRAL COAST

CITY           SKY/WX    TMP DP  RH WIND       PRES   REMARKS
FRISCO         CLOUDY    48  40  73 CALM      30.14F
SWANQUARTER      N/A     46 N/A N/A SE6       30.06F

$$

NCZ095-097-098-100-101-020100-
SOUTHERN COAST

CITY           SKY/WX    TMP DP  RH WIND       PRES   REMARKS
BEAUFORT       CLOUDY    49  42  77 E7        30.11F
CEDAR ISLAND     N/A     46 N/A N/A SE6       30.15F
JACKSONVILLE   MOCLDY    51  39  63 SE3       30.10F
PINEY ISLAND     N/A    N/A N/A N/A MISG      30.11F
WILMINGTON     CLOUDY    53  43  68 SE3       30.09F


$$

NCZ011>013-027>030-043-044-078>080-089-090>093-098-020100-
COASTAL PLAIN

CITY           SKY/WX    TMP DP  RH WIND       PRES   REMARKS
AHOSKIE        CLOUDY    47  24  41 SE5       30.07F
CLINTON        CLOUDY    55  37  50 SE5       30.05F
ELIZABETHTOWN  CLOUDY    56  40  56 SE8       30.05F
GOLDSBORO      MOCLDY    53  40  62 CALM      30.04F
GREENVILLE     CLOUDY    50  28  43 SE7       30.08F
HAVELOCK       CLOUDY    50  39  66 SE7       30.11F
KENANSVILLE    MOCLDY    53  36  51 SE5       30.06F
KINSTON        MOCLDY    50  34  53 S7        30.08
NEW BERN       CLOUDY    53  39  59 S6        30.11F
RICHLANDS      MOCLDY    54  37  54 S6        30.09F
ROCKY MOUNT    CLOUDY    50  26  39 SE3       30.05F
WASHINGTON     CLOUDY    49  28  43 SE7       30.08F
WHITEVILLE     CLOUDY    57  42  57 S6        30.06F

$$

AMZ130-135-150-152-154-156-158-170-250-252-270-ANZ085-086-088-633-658-670-020100-
MARINE OBSERVATIONS

STATION/POSITION TIME  TEMP    WIND        PRES    WAVE   SWELL
                       AIR SEA DIR/SP/G            HT/PER HT/PER
                 (UTC) (F)     (DEG/KT/KT) (MB)    (FT/S) (FT/S)
CHESAPEAKE LIGHT 0000   43     170/ 18/ 19 1019.3
64 E VA BEACH    0000   48 47  190/ 10/ 12 1020.3    3/11   3/11
DUCK             0000   42 40  150/ 10/ 10 1018.8
2 E DUCK         0000      40                N/A     3/12   2/12
10 NE DUCK       0000      43                N/A     3/11   2/11
OREGON INLET     0000   45 38  150/  6/  8 1020.3
13E OREGON INLT  NOT AVBL
HATTERAS CG      0000   51 46  130/  1/  1 1020.6
DIAMOND BUOY     0000   62 71  210/ 19/ 25 1020.2    4/10   3/10
17 S OCRACOKE    NOT AVBL
CAPE LOOKOUT     0000   53      80/  4/  4 1019.7
BEAUFORT LAB     0000   49 46  120/  7/  8 1018.5
27 SE WRIGHTSVLE NOT AVBL
5 SE WRIGHTSVLE  0000   55 53  220/  2/  2 1019.0
225 S CAPE HAT   2246   63 71  180/ 14/ 17 1023.9    7/10   7/10
41 SE CHARLESTON 0000   67 71  170/ 21/ 27 1017.7    5/ 5   2/11

$$


USA.gov is the U.S. government's official web portal to all federal, state and local government web resources and services.